{"data":{"norad_id":60083,"epoch":"2026-09-22T22:53:21.111648Z","epoch_age_seconds":66521,"freshness":"FRESH","line1":"1 60083U 24114E   26265.95371657  .00000406  00000+0  59414-4 0  9999","line2":"2 60083  97.8930 287.8366 0001302 230.3081 129.8017 14.80778090121857","mean_motion":14.8077809,"eccentricity":0.0001302,"inclination_deg":97.893,"raan_deg":287.8366,"arg_perigee_deg":230.3081,"mean_anomaly_deg":129.8017,"bstar":5.9414e-5,"rev_number":12185,"period_min":97.246171436802,"perigee_km":625.9571064849,"apogee_km":627.78121008852,"semimajor_km":7005.0061582867,"source":"CELESTRAK","updated_at":"2026-09-23T09:00:20.407396Z"}}